Location: Boji?i
(45.1369°N, 16.0844°E)
Time: 20:41:48
(UTC+00:00)

Daily predictions for brighter satellites

Satellite Brightness Start Highest point End
(mag) Time Altitude Azimuth Time Altitude Azimuth Time Altitude Azimuth
BREEZE-M DEB (TANK) 4.3 19:13:45 10° WNW 19:17:02 56° N 19:27:25 10° E
CZ-2C R/B 4.0 19:17:33 10° NNE 19:22:21 83° WNW 19:27:07 10° SSW
H-2A R/B 4.4 19:19:34 10° SSW 19:23:57 25° W 19:28:21 10° NW
SPOT 1/Viking Rocket 4.5 19:20:49 10° SE 19:25:24 34° ENE 19:30:02 10° N
Cosmos-2242 3.7 19:26:38 10° N 19:30:45 40° ENE 19:34:52 10° SSE
SPOT 3 Rocket 4.1 19:26:32 10° S 19:31:40 61° WSW 19:36:52 10° NNW
Cosmos 1400 Rocket 3.4 19:28:52 10° N 19:32:39 40° ENE 19:36:21 10° SE
Alouette 2 Rocket 4.3 19:30:24 10° N 19:34:06 41° ENE 19:39:03 10° SE
Lacrosse 5 rocket 4.1 19:32:52 10° WNW 19:36:00 19° NNW 19:39:02 10° NNE
Resurs 01 Rocket 1.8 19:33:09 10° S 19:37:33 74° WSW 19:41:59 10° NNW
Terra 3.5 19:36:36 10° ESE 19:40:02 20° ENE 19:43:28 10° NNE
BREEZE-M DEB (TANK) 4.1 19:37:40 10° SSW 19:43:20 26° SSE 19:45:46 10° E
Cosmos 2322 Rocket 3.4 19:41:17 10° SW 19:46:41 48° WNW 19:52:08 10° NNE
NOSS 3-3 (A) 4.3 19:44:08 10° S 19:49:26 40° ESE 19:55:20 10° NE
NOSS 3-3 (C) 4.3 19:44:14 10° S 19:49:34 39° ESE 19:55:27 10° NE
BREEZE M DEB (TANK) 2.1 19:46:33 10° WNW 19:49:40 62° NNE 19:51:26 13° E
Cosmos 1758 Rocket 3.6 19:49:38 10° S 19:54:08 88° E 19:58:40 10° N
Cosmos 783 Rocket 4.5 19:49:27 10° SSW 19:54:42 84° ESE 19:59:57 10° NNE
SL-24 R/B - RUBIN 2 4.4 19:49:49 10° SSW 19:55:46 72° ESE 20:02:21 10° NE
Cosmos 1455 2.7 19:52:31 10° NNW 19:56:20 60° W 20:00:08 10° S
USA 245 3.1 19:54:56 13° SSE 19:57:50 80° ENE 20:02:03 10° N
Cosmos 1328 3.7 19:55:32 10° S 19:59:29 82° E 20:03:29 10° N
Cosmos 1538 Rocket 4.4 19:59:28 10° S 20:04:32 44° ESE 20:09:35 10° NNE
ATLAS 2AS CENTAUR R/B 4.2 20:00:50 10° NNW 20:07:41 33° NNE 20:14:02 10° E
COSMOS 2428 2.9 20:03:53 10° S 20:09:19 49° ESE 20:14:46 10° NE
Cosmos 1703 3.6 20:06:34 10° SSW 20:10:24 64° W 20:14:17 10° N
Cosmos 1844 3.8 20:05:29 10° NNW 20:11:16 78° WSW 20:16:01 15° SSE
Cosmos 2322 3.7 20:06:20 10° SSW 20:12:03 84° ESE 20:17:49 10° NNE
Cosmos 2181 Rocket 4.2 20:05:51 10° N 20:12:09 62° ENE 20:17:11 16° SSE
DELTA 2 R/B (1) 4.3 20:09:40 10° SW 20:14:26 29° SSE 20:19:13 10° E
Cosmos 2084 4.0 20:11:59 10° NNW 20:16:23 53° NE 20:19:31 18° ESE
Cosmos 1953 Rocket 3.5 20:13:06 10° S 20:17:24 84° E 20:21:46 10° N
Cosmos 773 Rocket 4.0 20:12:55 10° SSW 20:18:13 88° ESE 20:23:33 10° NNE
Cosmos 2237 Rocket 3.4 20:17:54 18° SE 20:20:26 24° ESE 20:24:54 10° NE
ERS-1 Rocket 3.0 20:16:48 17° SSE 20:20:39 72° ENE 20:25:42 10° N
Cosmos 2219 Rocket 2.1 20:15:36 10° SSW 20:21:07 68° ESE 20:26:42 10° NNE
ATLAS CENTAUR R/B 1.4 20:19:03 10° NNW 20:22:41 56° NE 20:24:46 23° ESE
USA 215 3.3 20:16:49 10° ENE 20:23:16 57° SE 20:29:41 10° SSW
Cosmos 2360 Rocket 3.4 20:18:30 10° SW 20:23:54 46° WNW 20:29:21 10° NNE
Cosmos 2333 4.3 20:18:19 10° SSW 20:23:57 82° WNW 20:29:42 10° NNE
Meteor 1-27 4.4 20:18:23 10° N 20:24:07 66° ENE 20:28:19 19° SSE
Cosmos 1869 4.4 20:21:34 10° N 20:25:09 31° ENE 20:27:01 21° ESE
SPOT 5 2.9 20:23:12 19° SSE 20:26:48 71° ENE 20:31:35 10° N
Cosmos 1842 Rocket 4.1 20:22:58 10° N 20:27:07 42° ENE 20:29:24 23° SE
Landsat 7 4.4 20:26:08 12° S 20:30:22 52° W 20:35:03 10° NNW
Atlas Centaur 2 3.8 20:28:34 10° SW 20:32:55 20° S 20:34:39 18° SSE
Cosmos 2333 Rocket 2.2 20:29:18 10° SSW 20:34:59 89° WNW 20:40:45 10° NNE
GEOS 3 Rocket 3.9 20:33:50 10° NE 20:39:14 74° NW 20:44:36 10° SW
BREEZE-M DEB (TANK) 4.4 20:43:57 15° E 20:43:57 15° E 20:45:36 10° E
NOSS 0 Rocket 4.2 20:38:25 16° S 20:43:01 48° ESE 20:48:55 10° NE
Cosmos 1315 Rocket 2.9 20:43:29 10° NNW 20:47:35 78° W 20:49:47 27° S
Meteor 2-2 Rocket 4.4 20:44:01 10° N 20:49:48 63° ENE 20:53:03 26° SSE
CARTOSAT-1 4.0 20:49:41 21° S 20:52:21 55° W 20:56:37 10° NNW
Cosmos 1892 3.3 20:51:28 32° SE 20:52:22 38° E 20:55:55 10° NNE
OAO 2 Rocket 4.4 20:48:27 10° WSW 20:52:51 27° S 20:53:38 26° S
ATLAS 5 CENTAUR R/B 3.7 20:49:19 10° W 20:53:04 29° NW 20:57:14 10° NNE
USA 81 4.4 20:48:47 13° SSW 20:53:28 66° W 20:58:45 10° N
USA 267 3.7 20:49:19 11° ESE 20:55:26 60° NNE 21:01:53 10° NW
Cosmos 2278 Rocket 2.4 20:50:01 10° NNW 20:55:41 65° ENE 20:58:50 27° SE
Cosmos 1844 Rocket 4.2 20:52:50 10° NW 20:57:26 27° WSW 21:01:37 12° SSW
Cosmos 1680 Rocket 3.9 20:59:29 28° SSE 21:01:52 47° ESE 21:06:58 10° NNE
MTI 3.6 20:58:52 10° NNE 21:01:56 61° ESE 21:02:17 55° SE
Cosmos 1408 3.5 21:03:39 30° E 21:03:54 30° E 21:07:03 10° NNE
SL-16 R/B 3.6 21:04:44 20° ESE 21:05:33 20° E 21:09:36 10° NE
BREEZE-M R/B 4.4 21:00:17 10° WNW 21:10:20 53° SW 21:12:48 31° SSE
Cosmos 2184 Rocket 4.0 21:08:52 21° S 21:13:14 88° W 21:19:34 10° N
Cosmos 2221 2.6 21:09:04 10° NNW 21:13:27 74° W 21:15:14 35° S
Lacrosse 5 rocket 4.1 21:13:51 10° NNW 21:16:28 16° N 21:19:00 10° NE
In-Cosmos 22 Rocket 4.0 21:14:18 28° S 21:17:12 83° E 21:22:32 10° NNE
Terra 2.3 21:14:58 26° SSW 21:17:24 52° W 21:22:04 10° NNW
Cosmos 923 Rocket 3.9 21:16:24 23° SSW 21:19:44 87° ESE 21:25:03 10° NNE
TSX-5 3.8 21:25:32 10° NW 21:29:07 69° WSW 21:30:04 48° S
Cosmos 2058 2.9 21:27:38 39° SSW 21:29:07 78° W 21:33:17 10° N
NOSS 3-4 (A) 3.9 21:24:31 10° NW 21:31:32 79° NE 21:36:03 27° SE
NOSS 3-4 (C) 3.9 21:24:38 10° NW 21:31:39 79° NE 21:36:11 27° SE
Cosmos 1624 Rocket 4.2 21:34:04 10° NNW 21:39:17 64° ENE 21:41:12 38° SE
Cosmos 1825 2.2 21:39:57 56° ESE 21:40:13 58° E 21:43:58 10° NNE
Cosmos 1980 3.9 21:41:49 19° SW 21:46:00 71° WNW 21:51:40 10° NNE
EO 1 Delta rocket 4.3 21:40:57 10° NNE 21:46:09 73° E 21:48:46 36° S
Cosmos 2369 Rocket 4.2 21:42:50 10° N 21:46:58 20° NE 21:51:05 10° E
Cosmos 1076 Rocket 4.0 21:47:33 33° SW 21:49:11 54° WNW 21:53:23 10° N
Aureole 2 Rocket 3.2 21:46:31 10° N 21:48:50 34° NE 21:48:50 34° NE
Nadezhda 3 Rocket 4.2 21:46:00 10° NNW 21:52:20 69° W 21:55:18 33° SSW
Cosmos 2154 Rocket 4.2 21:49:47 27° SSW 21:53:18 68° W 21:59:32 10° N
COSMOS 2428 4.5 21:48:52 10° WSW 21:53:48 30° NW 21:58:46 10° N
COSMOS 2455 4.1 21:48:50 10° NNW 21:54:21 35° NE 21:58:41 15° ESE
Cosmos 2151 2.9 21:55:43 59° SSE 21:56:27 79° E 22:00:45 10° N
Cosmos 2341 Rocket 3.9 21:55:15 37° S 21:57:50 75° E 22:04:03 10° NNE
Cosmos 1933 4.1 21:55:28 10° N 21:59:15 38° ENE 21:59:44 37° E
ATLAS 2AS CENTAUR R/B 2.8 21:51:55 10° NW 21:59:28 80° WSW 22:02:39 36° SSE
Thor Agena Rocket 3.5 21:54:26 10° NNE 21:59:34 84° WNW 22:01:29 39° SSW
DELTA 2 R/B (1) 3.7 21:54:55 10° WSW 22:00:16 48° S 22:01:15 43° SE
ATLAS CENTAUR R/B 3.5 21:59:26 10° W 22:00:56 13° WSW 22:00:56 13° WSW
Genesis I 3.8 22:00:58 29° WSW 22:02:43 54° NW 22:06:33 10° NNE
BREEZE-M DEB (TANK) 2.0 21:59:55 10° WNW 22:03:23 56° N 22:03:23 56° N
Cosmos 2237 Rocket 2.8 21:59:39 16° SW 22:04:05 55° WNW 22:09:43 10° NNE
Cosmos 2219 Rocket 4.4 22:01:14 10° W 22:05:36 23° NW 22:09:59 10° N
USA 215 4.0 21:59:54 10° NE 22:06:16 55° NNW 22:12:36 10° WSW
Cosmos 1371 Rocket 4.1 22:02:07 10° NNW 22:07:21 67° WSW 22:08:51 45° S
Spot 4 3.9 22:06:50 48° SSW 22:08:03 67° WSW 22:12:49 10° NNW
Cosmos 2344 3.5 22:05:02 15° SW 22:11:28 88° NW 22:19:33 10° NE
SL-8 Rocket 3.9 22:11:02 41° S 22:13:18 74° E 22:19:27 10° NNE
Cosmos 1151 Rocket 3.1 22:10:50 10° N 22:15:09 65° E 22:15:44 57° ESE
Cosmos 1408 Rocket 4.0 22:15:03 45° ESE 22:15:26 46° E 22:19:40 10° NNE
Cosmos 1782 4.3 22:13:35 10° NNE 22:16:57 26° ENE 22:17:28 25° E
ALOS 2 2.5 22:18:57 62° SSE 22:19:40 83° ENE 22:24:04 10° NNW
Cosmos 1346 Rocket 3.8 22:20:27 32° E 22:20:27 32° E 22:23:49 10° NNE
CZ-4C R/B 4.1 22:13:55 10° NNW 22:20:21 37° NE 22:27:42 10° ESE
Cosmos 332 Rocket 4.4 22:16:41 10° NNW 22:21:22 49° ENE 22:22:47 37° ESE
Cosmos 1420 Rocket 4.0 22:17:06 10° NNW 22:22:25 79° ENE 22:23:55 48° SE
Cosmos 1727 Rocket 4.3 22:20:53 10° N 22:27:02 56° ENE 22:29:27 36° SE
EO 1 Del DPAF 4.3 22:25:38 10° N 22:29:08 37° WNW 22:29:55 33° W
Cosmos 2056 Rocket 4.0 22:25:56 10° NNW 22:31:09 49° WSW 22:32:26 40° SW
GP-B 3.0 22:27:57 10° N 22:32:24 79° W 22:33:04 62° SSW
Cosmos 1633 3.5 22:32:54 37° ENE 22:32:54 37° ENE 22:35:54 10° NNE
Nimbus 7 Rocket 4.4 22:29:40 10° NNE 22:35:37 78° WNW 22:37:58 38° SSW
Cosmos 1606 3.0 22:33:32 10° NNW 22:37:21 55° W 22:37:25 55° W
USA 267 3.5 22:36:39 40° S 22:38:32 50° SW 22:44:54 10° WNW
RESURS DK-1 4.3 22:35:40 10° N 22:39:03 23° NE 22:41:06 16° E
Cosmos 2278 Rocket 3.8 22:35:12 10° NW 22:39:11 20° W 22:40:40 18° WSW
Cosmos 1943 4.3 22:41:16 27° ESE 22:42:04 28° ESE 22:46:47 10° NE
Cosmos 44 3.5 22:40:51 37° WSW 22:42:16 57° NW 22:46:39 10° NNE
Cosmos 2297 3.8 22:36:43 10° NNW 22:42:25 65° WSW 22:43:52 48° S
Cosmos 1943 Rocket 2.4 22:37:38 10° NNW 22:43:18 65° ENE 22:45:29 37° SE
Cosmos 1048 Rocket 4.3 22:42:50 45° SE 22:43:43 50° ESE 22:48:48 10° NNE
Gbstr 26 Del rocket 2.8 22:44:20 62° E 22:44:20 62° E 22:47:54 10° ENE
Landsat 4 4.3 22:45:10 10° NNE 22:48:35 45° E 22:48:35 45° E
SL-16 R/B 2.5 22:46:35 33° SW 22:49:07 64° WNW 22:54:48 10° NNE
Cosmos 371 Rocket 3.3 22:45:50 10° NNW 22:50:39 66° WSW 22:51:21 58° SSW
APEX 4.3 22:52:24 10° NNW 22:53:51 28° NNW 22:53:51 28° NNW
Cosmos 405 3.3 22:52:56 10° N 22:56:11 63° NE 22:56:11 63° NE
Lacrosse 5 rocket 2.8 22:52:59 10° NW 22:56:39 34° NNE 22:59:15 16° E
Cosmos 1452 Rocket 3.4 22:52:54 10° NNW 22:58:11 78° WSW 22:59:20 55° S
Cosmos 1515 Rocket 3.4 22:55:23 10° NNW 22:59:44 75° W 23:00:08 68° SW
ISS -1.0 23:04:52 12° E 23:04:52 12° E 23:05:08 10° E
Cosmos 1328 Rocket 4.3 23:01:47 10° NNW 23:05:46 37° W 23:06:06 37° WSW
SeaSat 1 4.4 23:04:44 10° ENE 23:07:39 16° ESE 23:08:09 15° ESE
Meteor 2-3 Rocket 4.1 23:12:54 37° SW 23:14:53 55° WNW 23:20:30 10° N
Cosmos 1340 3.9 23:15:33 30° W 23:15:53 30° WNW 23:19:15 10° N
Cosmos 2228 Rocket 3.0 23:16:11 10° N 23:20:47 84° W 23:21:26 65° S
Resurs 1-4 Rocket 4.1 23:18:15 10° NE 23:21:41 17° E 23:23:48 14° ESE
Cosmos 1603 3.7 23:22:36 49° S 23:24:08 72° ESE 23:29:51 10° NNE
Meteor 2-6 Rocket 4.0 23:21:32 10° N 23:27:02 85° ENE 23:28:38 48° SSE
Meteor 1-10 Rocket 4.2 23:22:50 10° N 23:28:26 74° ENE 23:30:20 42° SSE
Cosmos 1633 Rocket 4.5 23:27:34 25° ESE 23:28:30 27° E 23:32:14 10° NNE
Cosmos 1743 Rocket 3.9 23:29:40 48° WSW 23:30:15 53° WNW 23:34:31 10° N
Sich 1 3.4 23:29:53 47° ESE 23:30:26 50° E 23:34:39 10° NNE
SL-4 R/B 3.9 23:32:14 12° ENE 23:32:14 12° ENE 23:32:41 10° ENE
CZ-4 R/B 3.7 23:26:44 10° NNE 23:31:27 90° WNW 23:32:25 58° SSW
Cosmos 2369 Rocket 2.1 23:26:02 10° NNW 23:31:39 78° WSW 23:33:19 47° S
Cosmos 44 Rocket 3.2 23:32:07 57° SSE 23:32:38 62° ESE 23:37:20 10° NE
Cosmos 1821 Rocket 3.9 23:30:57 43° SSW 23:33:07 83° W 23:39:14 10° N
Helios 1A 4.0 23:34:08 32° W 23:34:08 32° W 23:37:51 10° NNW
Cosmos 304 Rocket 4.0 23:29:47 10° NNW 23:34:29 52° WSW 23:35:00 50° SW
Lacrosse 5 3.8 23:36:20 15° ESE 23:36:20 15° ESE 23:39:02 10° E
Cosmos 2123 Rocket 4.1 23:31:50 10° N 23:38:01 67° E 23:40:49 34° SSE
COSMOS 2455 3.1 23:34:41 10° NW 23:40:28 49° WSW 23:41:47 42° SSW
Cosmos 1656 Rocket 3.8 23:36:23 10° NNW 23:41:48 67° ENE 23:44:30 30° SE
ATLAS 2AS CENTAUR R/B 4.3 23:44:58 10° WNW 23:49:07 16° WSW 23:50:03 16° WSW
Cosmos 1812 2.5 23:47:22 10° N 23:51:14 85° W 23:51:25 80° SSW
Cosmos 1782 4.3 23:49:57 10° NW 23:53:04 24° W 23:53:04 24° W
USA 32 4.0 23:51:42 48° S 23:53:15 87° W 23:58:33 10° N
CZ-2D R/B 3.3 23:50:20 10° NNE 23:55:05 32° E 23:57:20 23° SE
